Location: *
(49.9211°S, 177.0323°W)
Time: 03:46:45
(UTC+00:00)

Daily predictions for brighter satellites

Satellite Brightness Start Highest point End
(mag) Time Altitude Azimuth Time Altitude Azimuth Time Altitude Azimuth
Cosmos 2237 Rocket 3.2 07:08:53 10° SSW 07:14:10 35° SE 07:19:21 10° ENE
IRS-1C Rocket 4.1 07:08:59 10° SSE 07:14:22 81° ENE 07:19:40 10° NNW
Cosmos 1825 3.3 07:11:32 10° NNE 07:14:44 26° E 07:17:59 10° SSE
USA 229 DEB 4.3 07:09:53 10° N 07:16:57 42° ENE 07:23:44 10° SE
USA 229 4.3 07:10:00 10° N 07:17:03 41° ENE 07:23:49 10° SE
Cosmos 1076 Rocket 4.2 07:14:53 10° NNE 07:18:55 37° E 07:23:01 10° SSE
ISS -3.3 07:18:10 10° W 07:21:37 64° S 07:25:03 10° E
Cosmos 2360 Rocket 3.6 07:16:43 10° SW 07:22:01 40° WNW 07:27:16 10° N
USA 267 3.5 07:16:37 10° ESE 07:23:03 50° NE 07:29:25 10° NNW
USA 281 3.2 07:17:04 10° SSE 07:23:45 74° ENE 07:30:21 10° NNW
Cosmos 1833 4.4 07:19:20 10° NNW 07:25:03 80° WSW 07:30:47 10° SSE
Cosmos 1980 4.4 07:19:41 10° SSW 07:25:07 42° SE 07:30:30 10° ENE
Cosmos 1745 Rocket 4.1 07:19:40 10° N 07:26:00 69° E 07:32:23 10° SSE
CZ-4 R/B 1.5 07:22:05 10° SSE 07:26:24 81° ENE 07:30:35 10° NNW
Cosmos 1850 Rocket 4.2 07:21:14 10° NNW 07:26:36 86° WSW 07:32:01 10° SSE
Cosmos 1340 2.7 07:23:36 10° N 07:27:27 88° E 07:31:20 10° SSE
SL-24 DEB 4.3 07:22:41 10° N 07:27:31 82° E 07:32:22 10° S
H-2A R/B 3.7 07:26:36 10° NNE 07:30:39 54° ESE 07:34:47 10° S
CENTAUR R/B 4.5 07:25:39 10° SW 07:31:05 24° S 07:35:55 10° SE
NOSS 3-1 (A) 4.4 07:23:45 10° N 07:31:53 44° ENE 07:39:07 10° SE
COSMOS 2487 3.1 07:30:59 10° NW 07:34:25 59° WSW 07:37:54 10° SSE
CSL-04 Debris 4.3 07:31:55 10° SSE 07:37:18 54° E 07:42:37 10° N
SJ-11-01 4.4 07:33:53 10° SSE 07:38:39 59° E 07:43:19 10° N
SL-16 R/B 3.7 07:35:19 10° SSW 07:40:01 25° SE 07:44:43 10° E
Cosmos 1386 Rocket 4.5 07:34:05 10° N 07:40:15 81° E 07:46:25 10° S
Cosmos 2227 Rocket 3.5 07:43:13 11° NE 07:46:59 19° E 07:50:57 10° SE
Cosmos 2219 Rocket 2.7 07:43:22 10° SW 07:49:00 61° WNW 07:54:36 10° NNE
TELKOM 3 3.9 07:45:05 10° W 07:49:05 84° NNW 07:51:41 15° ENE
USA 186 2.7 07:46:14 10° SSE 07:49:15 31° E 07:51:43 13° NNE
Cosmos 724 4.5 07:43:55 10° SW 07:49:49 73° NW 07:55:20 11° NNE
Cosmos 1606 3.3 07:46:19 10° S 07:50:00 41° ESE 07:52:50 15° NE
NOSS 3-1 (C) 4.1 07:41:26 10° NNW 07:50:07 73° NE 07:57:40 10° SE
Cosmos 1151 Rocket 4.2 07:47:18 10° S 07:51:05 27° ESE 07:53:48 16° ENE
Cosmos 1709 Rocket 4.0 07:49:36 10° N 07:55:52 67° E 08:02:07 10° SSE
FREGAT/IRIS 3.9 07:54:04 10° SE 07:56:03 18° E 07:56:10 18° E
CZ-2C R/B 3.5 07:53:08 10° S 07:58:36 74° WSW 08:04:16 10° NNW
USA 234 3.3 07:53:29 14° NE 07:59:21 84° NNW 08:06:02 10° WSW
NOSS 0 Rocket 4.0 07:56:18 10° SSW 08:02:34 87° WNW 08:07:59 14° NNE
Cosmos 389 Rocket 3.1 08:02:58 10° S 08:06:29 43° ESE 08:08:27 22° NE
Cosmos 1933 4.0 08:02:45 10° S 08:06:44 40° ESE 08:09:05 21° NE
Resurs 01 Rocket 3.4 08:04:48 10° SE 08:07:27 15° E 08:08:04 15° E
Cosmos 2151 3.1 08:04:37 10° N 08:08:48 57° E 08:13:05 10° SSE
OBJECT-B 2.0 08:07:41 10° SE 08:10:29 24° E 08:11:03 23° ENE
YAOGAN 1 3.8 08:09:07 10° S 08:13:19 45° WSW 08:17:30 10° NW
Cosmos 2181 Rocket 4.0 08:08:58 10° S 08:15:13 78° E 08:20:43 14° NNE
Cosmos 2058 4.3 08:15:27 10° NW 08:19:27 41° WSW 08:23:33 10° S
ARGOS 3.2 08:14:50 10° SSE 08:20:20 90° ENE 08:25:46 10° NNW
Cosmos 1782 3.8 08:21:56 10° S 08:25:41 32° ESE 08:27:05 25° ENE
Cosmos 1932 4.5 08:19:59 10° SW 08:26:21 87° NW 08:30:38 22° NE
Cosmos 2297 Rocket 2.5 08:21:02 10° N 08:26:24 44° ENE 08:31:46 10° SE
Timation 2 Rocket 4.2 08:19:56 10° NNW 08:26:38 61° ENE 08:33:12 10° SE
Cosmos 968 Rocket 3.5 08:27:19 10° N 08:32:20 58° ENE 08:37:26 10° SSE
H-2A R/B 2.9 08:29:32 10° S 08:34:28 52° WSW 08:39:28 10° NW
Ariane Rocket 3.0 08:32:11 10° SSE 08:37:20 66° ENE 08:41:24 16° N
CSL-04 Rocket 4.4 08:32:03 10° S 08:37:28 58° WSW 08:42:54 10° NW
Cosmos 1515 Rocket 4.2 08:35:28 10° S 08:39:49 43° ESE 08:41:22 31° ENE
Lacrosse 5 rocket 2.7 08:37:44 10° SW 08:41:52 37° SSE 08:45:00 15° ESE
SL-08 RB Rocket 4.1 08:38:42 10° S 08:43:21 67° WSW 08:47:52 10° NNW
COSMOS 2428 4.4 08:42:41 10° SW 08:47:24 27° WNW 08:52:06 10° NNW
Cosmos 2333 Rocket 4.3 08:44:25 10° SW 08:48:38 21° W 08:52:51 10° NNW
Cosmos 2154 Rocket 4.4 08:46:27 27° NE 08:49:33 45° E 08:55:38 10° SSE
Cosmos 1825 4.2 08:46:49 10° NW 08:50:10 28° WSW 08:53:33 10° S
ATLAS CENTAUR R/B 4.5 08:46:54 10° WSW 08:50:23 20° SSW 08:53:57 10° SSE
Nadezhda 3 Rocket 4.2 08:44:31 10° S 08:50:39 54° ESE 08:53:37 30° NE
Meteor 2-3 Rocket 3.8 08:46:37 19° N 08:50:56 71° E 08:56:47 10° SSE
Cosmos 1486 Rocket 3.9 08:45:44 10° NNW 08:51:01 84° ENE 08:56:20 10° SSE
SJ-6B 2.9 08:48:42 10° S 08:52:34 76° WSW 08:55:08 20° NNW
Resurs 1-3 3.7 08:49:36 10° SSE 08:54:02 58° E 08:55:35 37° NNE
Cosmos 2219 3.1 08:50:18 10° NNW 08:56:00 76° ENE 09:01:44 10° SSE
ISS -3.7 08:55:03 10° WSW 08:58:28 63° NNW 08:58:41 61° N
Cosmos 2237 Rocket 2.8 08:52:53 10° SW 08:58:28 52° WNW 09:01:45 24° N
SeaSat 1 3.2 08:55:42 10° SE 09:00:08 31° ENE 09:00:08 31° ENE
Cosmos 1184 Rocket 4.3 09:01:46 26° ESE 09:01:46 26° ESE 09:03:49 10° SSE
Cosmos 1503 Rocket 4.1 08:57:42 25° N 09:00:51 62° ENE 09:06:15 10° SSE
Cosmos 2228 Rocket 3.8 08:58:18 10° S 09:02:31 37° ESE 09:03:23 34° E
Cosmos 1633 2.5 09:01:51 47° N 09:02:50 89° W 09:06:33 10° S
SAR-Lupe-2 3.8 09:02:15 43° NNW 09:03:14 66° WNW 09:06:55 10° SSW
Cosmos 2082 4.1 09:03:43 35° NE 09:05:11 42° ENE 09:10:32 10° SE
USA 267 3.5 08:59:39 10° ESE 09:06:16 72° SSW 09:12:51 10° WNW
IRS-1A Rocket 4.4 09:00:37 10° SSE 09:06:38 83° WSW 09:12:02 13° NNW
USA 229 DEB 4.3 09:00:11 10° WNW 09:07:46 64° SW 09:14:58 10° SE
USA 229 4.3 09:00:16 10° WNW 09:07:51 65° SW 09:15:03 10° SE
IGS 5A 4.4 09:04:27 10° SSE 09:07:56 31° E 09:07:56 31° E
Cosmos 1862 4.5 09:08:59 29° E 09:08:59 29° E 09:12:12 10° SSE
Cosmos 1867 3.5 09:04:29 10° SW 09:09:57 84° SE 09:11:58 40° NE
Okean 3 Rocket 4.2 09:07:49 17° NNW 09:11:12 58° WSW 09:15:46 10° S
Cosmos 1354 Rocket 4.0 09:09:30 30° N 09:12:07 67° ENE 09:17:29 10° SSE
Cosmos 1500 Rocket 3.9 09:13:48 44° ENE 09:14:09 45° E 09:18:28 10° SSE
MOS 1 4.4 09:08:40 10° SSE 09:14:28 79° WSW 09:19:14 16° NNW
Cosmos 1766 Rocket 4.2 09:13:08 19° NNW 09:16:11 55° WSW 09:20:35 10° S
USA 186 4.5 09:17:11 10° SSW 09:19:43 20° WSW 09:22:13 10° WNW
NOSS 3-1 (A) 4.4 09:14:18 10° NW 09:22:51 66° SW 09:30:13 10° SE
Cosmos 1610 Rocket 4.4 09:20:18 32° N 09:23:27 78° E 09:29:46 10° SSE
CENTAUR R/B 3.7 09:17:53 10° SW 09:23:34 33° SSE 09:27:34 15° E
SL-16 R/B 2.2 09:19:03 10° SSW 09:24:51 82° WNW 09:26:49 43° NNE
ERS-1 Rocket 4.4 09:21:29 10° SE 09:25:08 22° E 09:25:08 22° E
Cosmos 1743 Rocket 3.6 09:25:01 56° NE 09:25:31 60° E 09:30:01 10° SSE
Cosmos 1441 Rocket 3.9 09:26:26 33° NW 09:27:48 51° WSW 09:31:35 10° S
Cosmos 1151 Rocket 4.3 09:24:41 10° SSW 09:28:44 36° W 09:30:40 24° NW
Cosmos 1812 3.0 09:26:21 10° S 09:30:12 55° ESE 09:30:12 55° ESE
Cosmos 2227 Rocket 2.3 09:24:52 11° NNW 09:30:22 81° WSW 09:36:09 10° SSE
Thor Agena Rocket 3.6 09:30:50 48° NE 09:32:03 63° ESE 09:37:10 10° S
Cosmos 2184 Rocket 4.4 09:29:09 18° NNW 09:34:01 66° WSW 09:40:25 10° S
Meteor 1-27 Rocket 4.3 09:29:59 10° S 09:35:51 50° ESE 09:37:29 40° ENE
Cosmos 1295 Rocket 4.4 09:34:31 39° N 09:37:00 78° E 09:43:22 10° SSE
Cosmos 2263 Rocket 3.6 09:38:44 22° E 09:38:44 22° E 09:42:02 10° SE
SPOT 3 Rocket 3.6 09:33:33 10° SSE 09:38:49 81° WSW 09:41:00 36° NNW
Meteor 1-4 Rocket 3.0 09:36:21 10° SSW 09:39:51 55° W 09:39:51 55° W
OBJECT-B 3.0 09:40:00 10° SSW 09:42:45 24° WSW 09:44:12 18° WNW
USA 234 4.3 09:40:50 25° NNW 09:42:58 30° NW 09:48:41 10° WSW
Cosmos 962 Rocket 4.5 09:41:28 45° NNE 09:43:23 67° E 09:49:37 10° SSE
Resurs 01 Rocket 1.8 09:39:55 10° S 09:44:27 73° WSW 09:45:38 48° NW
Cosmos 1538 Rocket 4.0 09:39:44 10° SSW 09:44:59 72° ESE 09:45:59 56° NE
ARIANE 5 R/B 2.5 09:46:19 10° SSE 09:50:43 71° E 09:50:43 71° E
Cosmos 1805 Rocket 3.8 09:51:44 55° E 09:51:44 55° E 09:55:57 10° SSE
TIMED 4.5 09:51:57 10° SSW 09:56:25 74° ESE 09:56:29 74° ESE
USA 238 DEB 4.0 09:51:43 10° SW 09:58:45 62° SE 10:01:44 34° ENE
USA 238 4.0 09:51:49 10° SW 09:58:51 61° SE 10:01:51 34° ENE
Cosmos 2341 Rocket 4.0 09:58:35 49° N 10:00:27 79° E 10:06:54 10° SSE
Terra 3.0 09:58:23 10° SSE 10:01:59 29° ESE 10:01:59 29° ESE
EO 1 Del DPAF 3.6 10:03:13 61° SSE 10:03:13 61° SSE 10:06:32 10° S
NOSS 3-2 (A) 3.6 09:57:03 10° SW 10:03:50 68° SE 10:05:48 43° ENE
Lacrosse 4 Rocket 4.2 10:02:10 10° S 10:04:27 14° SSE 10:06:43 10° ESE
Spot 2 Rocket 3.3 10:00:03 10° SSE 10:05:12 75° ENE 10:05:39 69° NNE
ATLAS 3B R/B 4.3 10:01:46 10° SW 10:08:18 33° SSE 10:14:37 10° E
Cosmos 2218 Rocket 4.0 10:08:52 53° NE 10:09:57 61° E 10:16:06 10° SSE
Cosmos 2297 Rocket 3.5 10:05:13 10° WNW 10:10:32 39° SW 10:15:54 10° SSE
GEOS 3 Rocket 4.4 10:07:35 10° SE 10:11:03 35° E 10:11:03 35° E
Cosmos 1603 3.7 10:09:34 10° SSW 10:15:25 75° ESE 10:16:28 59° ENE
SPOT 5 3.2 10:14:02 10° SSE 10:19:17 59° E 10:19:23 59° ENE
Cosmos 1777 Rocket 4.0 10:19:19 62° NW 10:20:13 83° WSW 10:25:38 10° SSE
Lacrosse 5 rocket 1.8 10:17:06 10° WSW 10:20:37 57° WSW 10:20:37 57° WSW
SL-8 Rocket 3.9 10:21:57 56° N 10:23:26 88° E 10:29:52 10° S
Cosmos 158 Rocket 4.1 10:19:12 10° SSW 10:24:35 66° ESE 10:25:12 61° E
SJ 16-02 2.4 10:32:47 38° ESE 10:32:47 38° ESE 10:35:54 10° SSE
Cosmos 1707 Rocket 3.7 10:28:15 10° SSW 10:32:18 69° SW 10:32:18 69° SW
SPOT 1/Viking Rocket 3.7 10:28:00 10° S 10:33:16 70° WSW 10:34:08 58° NW
Cosmos 405 Rocket 3.4 10:34:23 55° SSW 10:34:23 55° SSW 10:37:44 10° S
Resurs 1-4 Rocket 4.3 10:33:49 12° E 10:36:20 16° SE 10:39:33 10° SSE
Cosmos 1437 Rocket 3.5 10:32:43 10° SSW 10:35:44 50° SSW 10:35:44 50° SSW
Cosmos 864 Rocket 4.4 10:35:31 61° N 10:36:44 87° E 10:43:07 10° S
SeaSat 1 3.2 10:32:59 10° SSE 10:37:49 49° SW 10:39:54 30° WNW
Meteor 1-20 Rocket 4.4 10:43:04 58° ENE 10:43:25 59° E 10:49:12 10° SSE
USA 267 4.1 10:42:32 10° ESE 10:48:51 49° S 10:55:10 10° WSW
Helios 1B rocket 4.0 10:49:47 28° ESE 10:49:47 28° ESE 10:53:11 10° S
Cosmos 1633 Rocket 3.4 10:50:42 64° SSE 10:50:42 64° SSE 10:54:30 10° S
Sich 1 3.7 10:52:00 50° WSW 10:52:00 50° WSW 10:56:13 10° S
Cosmos 923 Rocket 4.0 10:47:28 10° SSW 10:52:53 72° WNW 10:52:56 72° WNW
CZ-2D R/B 4.1 10:50:36 17° E 10:52:55 22° SE 10:57:03 10° S
Cosmos 1470 Rocket 4.3 10:57:22 47° SE 10:57:22 47° SE 11:00:47 10° SSE
Cosmos 1943 3.2 10:52:04 10° SSW 10:57:43 65° WNW 10:57:50 65° WNW
Cosmos 2366 rocket 4.2 11:00:46 50° NW 11:02:09 63° WSW 11:08:21 10° S
Okean 1 4.2 10:59:10 10° S 11:02:22 50° S 11:02:22 50° S
ERS-1 Rocket 3.3 10:59:36 10° S 11:04:38 59° WSW 11:05:07 56° W
NOSS 3-2 (C) 3.2 10:58:01 10° SW 11:04:46 88° NW 11:05:30 71° NE
Meteor 2-20 4.4 10:58:37 10° S 11:04:52 73° ESE 11:05:42 64° NE
SL-16 R/B 4.2 11:04:58 10° WSW 11:08:03 15° W 11:08:42 15° WNW
SL-08 R/B 4.4 11:10:01 67° NNW 11:10:54 81° W 11:17:08 10° S
Cosmos 1844 Rocket 4.0 11:11:39 26° E 11:11:39 26° E 11:15:38 10° SE
Cosmos 1242 Rocket 4.1 11:07:22 10° S 11:09:49 35° SSE 11:09:49 35° SSE
Cosmos 1862 Rocket 4.3 11:08:45 10° SSW 11:12:22 49° SW 11:12:22 49° SW
CENTAUR R/B 2.0 11:08:48 10° SW 11:14:43 79° WNW 11:14:43 79° WNW
Cosmos 2227 Rocket 4.5 11:11:04 10° W 11:15:22 21° SW 11:19:40 10° S
PSLV R/B 3.9 11:15:54 72° SW 11:15:54 72° SW 11:20:18 10° SSW
Cosmos 1934 Rocket 4.3 11:18:14 49° ENE 11:19:01 52° E 11:25:12 10° SSE
CZ-4C R/B 4.4 11:19:41 20° ENE 11:19:42 20° ENE 11:24:43 10° ESE
Resurs 01 Rocket 4.4 11:18:27 10° SSW 11:20:09 12° SW 11:21:50 10° WSW
Cosmos 2263 Rocket 2.3 11:20:22 62° WNW 11:21:08 70° WSW 11:26:49 10° SSE
Meteor 1-18 Rocket 4.1 11:17:13 10° SSW 11:22:53 80° W 11:23:04 79° NW
Cosmos 1461 4.4 11:21:30 10° SSW 11:24:56 29° SE 11:25:13 28° SE
Okean 1-7 3.6 11:21:26 10° S 11:24:59 54° SSE 11:24:59 54° SSE
ATLAS 2AS CENTAUR R/B 3.3 11:28:23 35° ENE 11:28:23 35° ENE 11:33:25 10° SE
Cosmos 2123 Rocket 4.0 11:23:21 10° S 11:29:44 73° E 11:30:43 62° NE
Cosmos 1933 Rocket 4.0 11:30:38 63° S 11:30:38 63° S 11:34:30 10° S
Cosmos 990 Rocket 3.9 11:32:05 85° SSW 11:32:05 85° SSW 11:37:17 10° SSE
Meteor 1-25 Rocket 4.4 11:32:44 60° WNW 11:33:20 64° WSW 11:39:08 10° S
Cosmos 1680 Rocket 4.2 11:28:27 10° SW 11:32:57 43° W 11:32:57 43° W
CZ-4 R/B 4.1 11:35:23 66° WSW 11:35:23 66° WSW 11:40:08 10° SSW
Terra 2.7 11:36:00 10° S 11:40:30 40° WSW 11:40:53 39° WSW
BREEZE-M DEB (TANK) 3.9 11:34:05 10° W 11:42:04 54° W 11:42:04 54° W
Intercosmos 25 4.0 11:38:02 10° S 11:43:37 68° SE 11:43:37 68° SE
Lacrosse 4 Rocket 2.3 11:39:53 10° SSW 11:44:06 49° SE 11:44:06 49° SE
USA 238 DEB 4.3 11:43:06 10° SW 11:49:10 39° WNW 11:49:10 39° WNW
Gbstr 26 Del rocket 4.0 11:45:41 31° WNW 11:49:30 88° NNE 11:55:41 10° ESE
USA 238 4.2 11:43:12 10° SW 11:49:16 39° WNW 11:49:16 39° WNW
GEOS 3 Rocket 4.3 11:45:40 10° SE 11:50:33 49° SW 11:52:09 36° W
Cosmos 1937 Rocket 3.4 11:52:33 88° W 11:52:34 88° WSW 11:58:00 10° SSE
